EDT,Max TemperatureF,Mean TemperatureF,Min TemperatureF,Max Dew PointF,MeanDew PointF,Min DewpointF,Max Humidity, Mean Humidity, Min Humidity, Max Sea Level PressureIn, Mean Sea Level PressureIn, Min Sea Level PressureIn, Max VisibilityMiles, Mean VisibilityMiles, Min VisibilityMiles, Max Wind SpeedMPH, Mean Wind SpeedMPH, Max Gust SpeedMPH,PrecipitationIn, CloudCover, Events, WindDirDegrees
2013-9-1,81,72,66,71,67,65,100,88,62,29.89,29.84,29.79,10,7,1,8,2,16,0.15,6,Rain-Thunderstorm,127
2013-9-2,83,74,65,73,67,62,100,86,61,29.83,29.77,29.68,10,8,1,12,4,,1.02,6,Rain-Thunderstorm,315
2013-9-3,66,60,55,61,56,54,100,81,65,29.96,29.87,29.80,10,10,10,13,6,17,0.00,7,,291
2013-9-4,77,62,48,57,54,48,100,70,48,30.03,30.00,29.97,10,10,10,10,6,,0.00,2,,295
2013-9-5,66,56,43,61,50,41,96,75,54,30.24,30.10,29.97,10,10,7,16,8,21,0.04,5,Rain,334
2013-9-6,66,53,41,52,44,39,100,77,40,30.32,30.25,30.15,10,10,10,8,3,,0.00,1,,81
2013-9-7,68,57,46,56,50,45,96,75,52,30.14,30.04,29.91,10,10,10,8,4,,0.00,4,Rain,183
2013-9-8,63,53,43,61,52,42,100,79,50,30.17,30.00,29.87,10,9,2,15,6,21,0.01,5,Rain,356
2013-9-9,72,56,39,55,48,39,100,74,50,30.23,30.16,30.07,10,10,10,13,6,,0.00,2,,156
2013-9-10,88,76,63,73,66,57,96,77,59,30.09,30.05,30.01,10,9,3,12,9,18,0.10,3,Rain-Thunderstorm,195
2013-9-11,91,80,68,73,70,66,97,80,50,30.11,30.06,29.97,10,8,5,18,7,,0.32,3,Rain-Thunderstorm,180
2013-9-12,77,69,61,68,65,59,100,90,76,29.95,29.84,29.75,10,8,3,15,4,,0.34,4,Rain-Thunderstorm,220
2013-9-13,61,54,48,59,53,47,96,91,80,29.99,29.84,29.74,10,8,3,15,7,21,0.00,8,Rain,335
2013-9-14,56,48,39,47,44,39,100,87,62,30.18,30.08,29.99,10,9,2,12,6,,0.00,6,,354
2013-9-15,66,52,38,52,45,37,100,80,40,30.23,30.16,30.11,10,10,7,8,5,,0.00,1,,143
2013-9-16,57,47,37,53,48,38,100,89,74,30.40,30.20,30.10,10,10,6,13,5,17,0.00,6,Rain,339
2013-9-17,61,46,32,47,39,32,100,79,46,30.52,30.43,30.35,10,10,3,8,3,,0.00,0,,57
2013-9-18,70,54,39,52,43,39,96,74,39,30.35,30.27,30.18,10,10,10,9,5,,0.00,0,,128
2013-9-19,74,58,43,54,48,42,97,74,43,30.19,30.14,30.07,10,10,10,8,5,,0.00,0,,115
2013-9-20,77,62,48,59,54,48,100,75,50,30.08,30.01,29.90,10,10,9,17,7,23,0.00,0,,146
2013-9-21,66,60,55,61,57,55,100,88,75,29.89,29.75,29.67,10,9,3,18,12,26,0.72,6,Rain,191
2013-9-22,54,51,46,55,46,39,100,83,66,30.02,29.86,29.73,10,10,6,15,10,22,0.01,7,Rain,318
2013-9-23,54,46,38,44,41,38,97,80,59,30.16,30.10,30.02,10,10,10,13,5,18,0.00,6,,1
2013-9-24,61,48,34,47,41,35,100,87,49,30.16,30.10,30.04,10,9,0,14,3,17,0.00,2,Fog,4
2013-9-25,66,50,36,51,44,36,100,83,56,30.04,30.01,29.97,10,10,10,10,4,,0.00,0,,15
2013-9-26,68,52,39,53,47,40,100,84,57,30.17,30.09,30.03,10,10,4,12,3,,0.00,1,,36
2013-9-27,68,56,43,54,48,44,100,92,58,30.30,30.22,30.16,10,4,0,9,3,,0.00,5,Fog,69
2013-9-28,70,58,45,53,49,45,97,79,53,30.36,30.30,30.24,10,10,10,10,5,,0.00,2,,123
2013-9-29,70,56,43,50,47,43,97,74,47,30.24,30.16,30.08,10,10,10,14,5,21,0.00,1,,151
2013-9-30,73,59,46,56,50,46,100,78,47,30.09,30.04,29.99,10,10,10,6,4,,0.00,1,,97